Regional Weather Roundup
Issued by NWS Northern Indiana

Home | Current Version | Previous Version | Graphics & Text | Print | Product List | Glossary On
Versions: 1 2 3 4 5 6 7 8 9 10 11 12 13 14 15 16 17 18 19 20 21 22 23 24 25 26 27 28 29 30 31 32 33 34 35 36 37 38 39 40 41 42 43 44 45 46 47 48 49 50
900
ASUS43 KIWX 231710
RWRIWX

KIWX WEATHER ROUNDUP
NATIONAL WEATHER SERVICE NORTHERN INDIANA
1200 PM EST TUE JAN 23 2018

NOTE: "FAIR" INDICATES FEW OR NO CLOUDS BELOW 12,000 FEET WITH NO
SIGNIFICANT WEATHER AND/OR OBSTRUCTIONS TO VISIBILITY.

* THESE STATIONS ARE NOT UNDER NWS QUALITY CONTROL. THEY ALSO MAY NOT
  REPORT WEATHER SUCH AS PRECIPITATION OR FOG.

INZ001>027-231800-
NORTHERN INDIANA

CITY           SKY/WX    TMP DP  RH WIND       PRES   REMARKS
GARY*          CLOUDY    34  28  80 NW12G23   29.89R WCI  25
VALPARAISO     CLOUDY    33  27  78 NW10G18   29.79R WCI  25
MICHIGAN CITY* CLOUDY    32  30  93 NW9G18    29.79R WCI  24
LAPORTE*       CLOUDY    31  28  87 NW12G23   29.78R WCI  22
KNOX*          CLOUDY    32  30  93 NW14G23   29.78R WCI  22
SOUTH BEND     MIX PCPN  31  28  89 NW16      29.76R VSB 1   WCI  20
ELKHART*       FLURRIES  32  28  86 NW16G24   29.73R WCI  21
GOSHEN         CLOUDY    33  30  88 W18G24    29.73R WCI  22
MONTICELLO*    CLOUDY    33  31  90 W18G24    29.81R WCI  22
LOGANSPORT*    CLOUDY    34  32  93 W12G17    29.80R WCI  25
ROCHESTER*     CLOUDY    36  32  87 W15       29.76R
WARSAW*        CLOUDY    34  32  93 NW14      29.74R WCI  24
AUBURN*        FLURRIES N/A N/A N/A W13       29.70R
FORT WAYNE     LGT SNOW  36  34  92 W20       29.72R FOG
HUNTINGTON*    DRIZZLE   34  33  96 W15G24    29.73R WCI  24
PERU/GRISSOM   CLOUDY    36  36 100 W17       29.77R
MARION*        CLOUDY    34  33  96 W22       29.77R FOG     WCI  22

$$
INZ028>050-231800-
CENTRAL INDIANA

CITY           SKY/WX    TMP DP  RH WIND       PRES   REMARKS
LAFAYETTE      CLOUDY    35  30  82 NW17G26   29.83R WCI  25
MUNCIE*        CLOUDY    37  32  82 W17G25    29.77R
INDIANAPOLIS   DRIZZLE   35  34  96 W16       29.84R FOG     WCI  25

$$
MIZ043>046-050>051-056>058-064>065-071>073-077>080-231800-
SOUTHWEST LOWER MICHIGAN

CITY           SKY/WX    TMP DP  RH WIND       PRES   REMARKS
BATTLE CREEK   CLOUDY    33  28  81 W22G28    29.64R WCI  21
BENTON HARBOR  CLOUDY    32  28  85 W14G21    29.75R WCI  22
COLDWATER*     CLOUDY    34  31  89 W16G30    29.65R WCI  23
HILLSDALE*     CLOUDY    34  30  86 W15G26    29.61R WCI  24
HOLLAND        LGT SNOW  31  28  89 NW15G23   29.70R FOG     WCI  20
GRAND RAPIDS   LGT SNOW  31  26  82 NW20G28   29.62R WCI  19
KALAMAZOO      CLOUDY    33  28  81 W18G30    29.67R WCI  22
STURGIS*       LGT SNOW  33  31  92 NW10G18   29.68R WCI  25
THREE RIVERS*  CLOUDY    34  30  87 W17G24    29.70R WCI  23

$$
OHZ001>008-015>018-024>025-231800-
NORTHWEST OHIO

CITY           SKY/WX    TMP DP  RH WIND       PRES   REMARKS
WAUSEON*       CLOUDY    37  37 100 W25G32    29.63S
DEFIANCE       CLOUDY    37  33  85 W13G24    29.67R
FINDLAY        CLOUDY    38  32  79 SW24G32   29.68R
TOLEDO EXPRESS CLOUDY    39  36  89 SW20G30   29.63R
TOLEDO METCALF CLOUDY    40  33  76 SW26G36   29.64S

$$
AND FOR LAKE MICHIGAN COASTAL AND OPEN LAKE BUOY OBSERVATIONS

STATION/POSITION TEMP    WIND        PRES    VSBY  WAVE
                 AIR SEA DIR/SP/G                  HT/PER
                 (F)     (DEG/KT/KT) (MB)    (MI)  (FT/S)
CALUMET HARBOR    31     280/ 10/ 16 1009.0R
MICHIGAN CITY     31     290/ 22/ 25   N/A
BURNS HARBOR      32     320/ 15/ 22 1009.1R
SAINT JOSEPH      32     310/ 17/ 21 1008.8

$$
&&




USA.gov is the U.S. government's official web portal to all federal, state and local government web resources and services.